| time (UTC) | temp F | wind direction | speed MPH | gust MPH | rain 1hr in | rain 24hr in | rain mn in | humidity % | barometer mb |
| 20260507064332 | 48 | 255 | 3.0 | 10.0 | 0.00 | 0.02 | 0.01 | 94 | 1012.5 |
| 20260507062331 | 47 | 262 | 2.0 | 7.0 | 0.01 | 0.02 | 0.01 | 94 | 1012.3 |
| 20260507061332 | 47 | 254 | 1.0 | 5.0 | 0.01 | 0.02 | 0.01 | 94 | 1012.2 |
| 20260507060332 | 47 | 290 | 2.0 | 8.0 | 0.01 | 0.02 | 0.01 | 94 | 1011.9 |
| 20260507055332 | 47 | 306 | 2.0 | 9.0 | 0.01 | 0.01 | 0.01 | 94 | 1011.8 |
| 20260507054329 | 47 | 273 | 1.0 | 5.0 | 0.01 | 0.01 | 0.01 | 94 | 1011.7 |
| 20260507052331 | 47 | 310 | 2.0 | 9.0 | 0.00 | 0.01 | 0.00 | 94 | 1011.6 |
| 20260507045332 | 47 | 286 | 2.0 | 7.0 | 0.00 | 0.01 | 0.00 | 94 | 1011.3 |
| 20260507044329 | 47 | 269 | 2.0 | 6.0 | 0.00 | 0.01 | 0.00 | 94 | 1011.3 |
| 20260507043331 | 47 | 250 | 1.0 | 8.0 | 0.00 | 0.01 | 0.00 | 94 | 1011.2 |
| 20260507042331 | 47 | 304 | 1.0 | 7.0 | 0.00 | 0.01 | 0.00 | 94 | 1011.1 |
| 20260507040330 | 47 | 271 | 2.0 | 7.0 | 0.00 | 0.01 | 0.00 | 94 | 1010.9 |
| 20260507034329 | 47 | 294 | 1.0 | 7.0 | 0.00 | 0.02 | 0.00 | 94 | 1010.8 |
| 20260507033329 | 47 | 254 | 3.0 | 6.0 | 0.00 | 0.02 | 0.00 | 94 | 1010.6 |
| 20260507032329 | 47 | 265 | 2.0 | 6.0 | 0.00 | 0.02 | 0.00 | 94 | 1010.6 |
| 20260507031329 | 47 | 272 | 4.0 | 9.0 | 0.00 | 0.02 | 0.00 | 94 | 1010.7 |
| 20260507030330 | 47 | 279 | 2.0 | 7.0 | 0.00 | 0.02 | 0.00 | 95 | 1010.6 |
| 20260507025328 | 47 | 263 | 4.0 | 9.0 | 0.00 | 0.02 | 0.00 | 95 | 1010.6 |
| 20260507024329 | 47 | 265 | 1.0 | 7.0 | 0.00 | 0.02 | 0.00 | 95 | 1010.5 |
| 20260507023329 | 47 | 299 | 1.0 | 4.0 | 0.00 | 0.02 | 0.00 | 95 | 1010.5 |
| 20260507022346 | 47 | 311 | 4.0 | 8.0 | 0.00 | 0.02 | 0.00 | 95 | 1010.4 |
| 20260507020330 | 47 | 257 | 2.0 | 4.0 | 0.00 | 0.02 | 0.00 | 95 | 1010.4 |
| 20260507015334 | 47 | 278 | 1.0 | 4.0 | 0.00 | 0.02 | 0.00 | 95 | 1010.3 |
| 20260507013331 | 47 | 314 | 1.0 | 5.0 | 0.00 | 0.02 | 0.00 | 94 | 1010.0 |
| 20260507012329 | 47 | 264 | 1.0 | 5.0 | 0.00 | 0.02 | 0.00 | 94 | 1009.9 |
| 20260507011334 | 47 | 286 | 1.0 | 7.0 | 0.00 | 0.02 | 0.00 | 94 | 1009.8 |
| 20260507010331 | 47 | 258 | 2.0 | 7.0 | 0.00 | 0.02 | 0.00 | 94 | 1009.8 |
| 20260507005338 | 47 | 290 | 3.0 | 8.0 | 0.00 | 0.02 | 0.00 | 94 | 1009.7 |
| 20260507004331 | 47 | 252 | 2.0 | 7.0 | 0.00 | 0.02 | 0.00 | 94 | 1009.6 |
| 20260507002329 | 47 | 261 | 0.0 | 7.0 | 0.00 | 0.02 | 0.00 | 94 | 1009.6 |
| 20260507001328 | 47 | 259 | 2.0 | 6.0 | 0.00 | 0.02 | 0.00 | 94 | 1009.5 |
| 20260507000329 | 48 | 267 | 2.0 | 8.0 | 0.00 | 0.02 | 0.00 | 94 | 1009.6 |
| 20260506235330 | 48 | 255 | 3.0 | 5.0 | 0.00 | 0.02 | 0.00 | 94 | 1009.5 |
| 20260506234331 | 48 | 246 | 2.0 | 5.0 | 0.00 | 0.02 | 0.00 | 94 | 1009.6 |
| 20260506233330 | 48 | 251 | 3.0 | 7.0 | 0.00 | 0.02 | 0.00 | 94 | 1009.5 |
| 20260506232330 | 48 | 257 | 3.0 | 6.0 | 0.00 | 0.02 | 0.00 | 94 | 1009.4 |
| 20260506231328 | 48 | 252 | 1.0 | 4.0 | 0.00 | 0.02 | 0.00 | 94 | 1009.4 |
| 20260506230331 | 48 | 249 | 2.0 | 4.0 | 0.00 | 0.02 | 0.00 | 94 | 1009.3 |
| 20260506225329 | 48 | 238 | 2.0 | 5.0 | 0.00 | 0.02 | 0.00 | 94 | 1009.3 |
| 20260506224330 | 48 | 248 | 1.0 | 4.0 | 0.00 | 0.02 | 0.00 | 94 | 1009.3 |
| 20260506223330 | 48 | 248 | 1.0 | 4.0 | 0.00 | 0.02 | 0.00 | 94 | 1009.3 |
| 20260506222329 | 48 | 255 | 3.0 | 7.0 | 0.00 | 0.02 | 0.00 | 94 | 1009.2 |
| 20260506221330 | 48 | 259 | 0.0 | 4.0 | 0.00 | 0.02 | 0.00 | 94 | 1009.2 |
| 20260506220330 | 48 | 273 | 1.0 | 4.0 | 0.00 | 0.02 | 0.00 | 93 | 1009.1 |
| 20260506215331 | 48 | 264 | 0.0 | 3.0 | 0.00 | 0.02 | 0.02 | 93 | 1009.1 |
| 20260506214329 | 48 | 250 | 1.0 | 6.0 | 0.00 | 0.02 | 0.02 | 93 | 1009.1 |
| 20260506213330 | 48 | 267 | 1.0 | 8.0 | 0.00 | 0.02 | 0.02 | 93 | 1009.0 |
| 20260506212331 | 48 | 282 | 2.0 | 4.0 | 0.00 | 0.02 | 0.02 | 93 | 1008.9 |
| 20260506211334 | 48 | 311 | 2.0 | 4.0 | 0.00 | 0.02 | 0.02 | 93 | 1009.0 |
| 20260506210329 | 48 | 273 | 2.0 | 8.0 | 0.00 | 0.03 | 0.02 | 93 | 1008.8 |
| 20260506205331 | 48 | 288 | 2.0 | 6.0 | 0.00 | 0.03 | 0.02 | 93 | 1008.8 |
| 20260506204330 | 49 | 273 | 1.0 | 6.0 | 0.00 | 0.03 | 0.02 | 93 | 1008.7 |
| 20260506203331 | 49 | 263 | 1.0 | 7.0 | 0.00 | 0.04 | 0.02 | 93 | 1008.7 |
| 20260506202329 | 49 | 305 | 2.0 | 5.0 | 0.00 | 0.04 | 0.02 | 93 | 1008.6 |
| 20260506201331 | 49 | 296 | 3.0 | 7.0 | 0.00 | 0.04 | 0.02 | 93 | 1008.6 |
| 20260506200329 | 49 | 272 | 3.0 | 9.0 | 0.00 | 0.05 | 0.02 | 92 | 1008.5 |
| 20260506194330 | 49 | 300 | 4.0 | 10.0 | 0.00 | 0.07 | 0.02 | 93 | 1008.0 |
| 20260506193329 | 50 | 304 | 3.0 | 9.0 | 0.00 | 0.07 | 0.02 | 92 | 1008.0 |
| 20260506192331 | 50 | 268 | 2.0 | 8.0 | 0.00 | 0.07 | 0.02 | 92 | 1007.7 |
| 20260506190331 | 50 | 273 | 2.0 | 9.0 | 0.00 | 0.08 | 0.02 | 93 | 1007.6 |
| 20260506185330 | 50 | 323 | 3.0 | 8.0 | 0.00 | 0.09 | 0.02 | 92 | 1007.4 |
| 20260506184329 | 50 | 250 | 4.0 | 12.0 | 0.00 | 0.09 | 0.02 | 92 | 1007.3 |
| 20260506183329 | 51 | 294 | 5.0 | 11.0 | 0.00 | 0.09 | 0.02 | 92 | 1007.2 |
| 20260506182328 | 51 | 294 | 2.0 | 7.0 | 0.00 | 0.10 | 0.02 | 92 | 1007.1 |
| 20260506181329 | 51 | 270 | 3.0 | 7.0 | 0.00 | 0.10 | 0.02 | 92 | 1007.1 |
| 20260506180328 | 51 | 259 | 3.0 | 10.0 | 0.00 | 0.11 | 0.02 | 91 | 1007.0 |
| 20260506175328 | 52 | 281 | 3.0 | 11.0 | 0.00 | 0.11 | 0.02 | 91 | 1006.9 |
| 20260506174328 | 52 | 258 | 1.0 | 5.0 | 0.00 | 0.12 | 0.02 | 92 | 1006.8 |
| 20260506173332 | 52 | 311 | 3.0 | 6.0 | 0.00 | 0.12 | 0.02 | 92 | 1006.6 |
| 20260506172324 | 53 | 247 | 2.0 | 8.0 | 0.00 | 0.12 | 0.02 | 91 | 1006.6 |
| 20260506170322 | 53 | 247 | 5.0 | 11.0 | 0.00 | 0.13 | 0.02 | 90 | 1006.4 |
| 20260506165324 | 53 | 257 | 3.0 | 12.0 | 0.00 | 0.13 | 0.02 | 91 | 1006.3 |
| 20260506164323 | 54 | 265 | 5.0 | 9.0 | 0.00 | 0.14 | 0.02 | 91 | 1006.3 |
| 20260506163322 | 54 | 273 | 4.0 | 10.0 | 0.00 | 0.14 | 0.02 | 91 | 1006.1 |
| 20260506162319 | 54 | 265 | 4.0 | 11.0 | 0.00 | 0.15 | 0.02 | 90 | 1006.2 |
| 20260506161319 | 55 | 292 | 5.0 | 10.0 | 0.00 | 0.17 | 0.02 | 89 | 1006.1 |
| 20260506160321 | 55 | 288 | 1.0 | 8.0 | 0.00 | 0.19 | 0.02 | 90 | 1006.1 |
| 20260506155320 | 55 | 260 | 3.0 | 7.0 | 0.00 | 0.20 | 0.02 | 89 | 1006.2 |
| 20260506154319 | 56 | 271 | 3.0 | 9.0 | 0.00 | 0.21 | 0.02 | 89 | 1006.1 |
| 20260506152316 | 56 | 274 | 2.0 | 8.0 | 0.00 | 0.23 | 0.02 | 91 | 1006.0 |
| 20260506151316 | 55 | 302 | 1.0 | 8.0 | 0.00 | 0.24 | 0.02 | 92 | 1005.8 |
| 20260506150318 | 55 | 275 | 4.0 | 10.0 | 0.00 | 0.24 | 0.02 | 92 | 1005.8 |
| 20260506145315 | 55 | 294 | 3.0 | 10.0 | 0.00 | 0.25 | 0.02 | 92 | 1005.7 |
| 20260506144318 | 56 | 294 | 4.0 | 9.0 | 0.00 | 0.27 | 0.02 | 92 | 1005.7 |
| 20260506142316 | 56 | 252 | 2.0 | 6.0 | 0.00 | 0.27 | 0.02 | 93 | 1005.4 |
| 20260506140313 | 57 | 293 | 3.0 | 8.0 | 0.00 | 0.27 | 0.02 | 91 | 1005.5 |
| 20260506135311 | 58 | 296 | 4.0 | 7.0 | 0.00 | 0.27 | 0.02 | 90 | 1005.4 |
| 20260506134311 | 58 | 257 | 1.0 | 7.0 | 0.00 | 0.27 | 0.02 | 90 | 1005.4 |
| 20260506133313 | 58 | 257 | 2.0 | 8.0 | 0.00 | 0.27 | 0.02 | 91 | 1005.4 |
| 20260506132310 | 58 | 277 | 2.0 | 7.0 | 0.00 | 0.27 | 0.02 | 90 | 1005.3 |
| 20260506131314 | 59 | 288 | 2.0 | 5.0 | 0.00 | 0.27 | 0.02 | 89 | 1005.3 |
| 20260506125311 | 59 | 238 | 2.0 | 6.0 | 0.00 | 0.27 | 0.02 | 88 | 1005.1 |
| 20260506124308 | 59 | 212 | 1.0 | 5.0 | 0.00 | 0.27 | 0.02 | 87 | 1005.3 |
| 20260506123311 | 59 | 246 | 4.0 | 8.0 | 0.00 | 0.27 | 0.02 | 86 | 1005.2 |
| 20260506122309 | 59 | 151 | 1.0 | 5.0 | 0.00 | 0.27 | 0.02 | 87 | 1005.2 |
| 20260506121309 | 60 | 229 | 1.0 | 4.0 | 0.00 | 0.27 | 0.02 | 87 | 1005.2 |
| 20260506120309 | 59 | 182 | 0.0 | 2.0 | 0.00 | 0.27 | 0.02 | 88 | 1005.2 |
| 20260506115307 | 58 | 184 | 0.0 | 2.0 | 0.00 | 0.27 | 0.02 | 89 | 1005.2 |
| 20260506113306 | 58 | 176 | 0.0 | 2.0 | 0.01 | 0.27 | 0.02 | 87 | 1005.2 |
| 20260506112306 | 58 | 177 | 0.0 | 0.0 | 0.01 | 0.27 | 0.02 | 86 | 1005.2 |
| 20260506111309 | 58 | 177 | 0.0 | 0.0 | 0.01 | 0.27 | 0.02 | 87 | 1005.1 |
| 20260506104307 | 58 | 207 | 0.0 | 3.0 | 0.00 | 0.26 | 0.02 | 86 | 1005.2 |
| 20260506103304 | 58 | 238 | 0.0 | 4.0 | 0.00 | 0.26 | 0.02 | 85 | 1005.1 |
| 20260506102305 | 58 | 217 | 1.0 | 3.0 | 0.00 | 0.26 | 0.02 | 85 | 1005.2 |
| 20260506101301 | 58 | 254 | 0.0 | 5.0 | 0.00 | 0.26 | 0.02 | 86 | 1005.3 |
| 20260506100302 | 58 | 240 | 0.0 | 4.0 | 0.00 | 0.26 | 0.02 | 87 | 1005.2 |
| 20260506095305 | 58 | 186 | 0.0 | 0.0 | 0.00 | 0.26 | 0.02 | 90 | 1005.1 |
| 20260506094303 | 57 | 186 | 1.0 | 3.0 | 0.00 | 0.26 | 0.02 | 89 | 1005.2 |
| 20260506093303 | 57 | 199 | 0.0 | 3.0 | 0.00 | 0.26 | 0.02 | 89 | 1005.1 |
| 20260506090302 | 58 | 165 | 0.0 | 4.0 | 0.00 | 0.26 | 0.02 | 90 | 1004.9 |
| 20260506085301 | 58 | 163 | 0.0 | 2.0 | 0.00 | 0.27 | 0.02 | 91 | 1004.9 |
| 20260506084301 | 57 | 162 | 0.0 | 2.0 | 0.00 | 0.27 | 0.02 | 92 | 1004.9 |
| 20260506082306 | 56 | 241 | 1.0 | 5.0 | 0.00 | 0.27 | 0.02 | 93 | 1004.8 |
| 20260506081301 | 56 | 185 | 0.0 | 3.0 | 0.00 | 0.27 | 0.02 | 94 | 1004.8 |
| 20260506080301 | 56 | 187 | 1.0 | 3.0 | 0.00 | 0.27 | 0.02 | 94 | 1004.8 |
| 20260506073305 | 55 | 248 | 0.0 | 3.0 | 0.00 | 0.27 | 0.02 | 94 | 1004.9 |
| 20260506072305 | 55 | 252 | 1.0 | 4.0 | 0.00 | 0.27 | 0.02 | 93 | 1004.7 |
| 20260506071302 | 55 | 161 | 0.0 | 4.0 | 0.00 | 0.27 | 0.02 | 93 | 1004.8 |
| 20260506070301 | 55 | 149 | 1.0 | 4.0 | 0.00 | 0.27 | 0.02 | 93 | 1004.6 |